When you browse on this site, cookies collect data to enhance your experience and personalize the content and advertising you see.
Visit our Privacy Policy to learn more. By continuing to use the site, you agree to this use of cookies and data.
  • In Austria
  • List of Countries
  • For 7 days
  • Water Temperature
  • Weather Map
  • News
  • Weather Widgets
  • user-avatar
    Login

    Hourly Weather Tizayuca

    Today, 18 January, Saturday

    Time Temperature Precipitation Wind Pressure Humidity
    00:00 +16°C° 0.2 mm 2 mps 583 mmHg 69%
    01:00 +15°C° 0.2 mm 1 mps 583 mmHg 70%
    02:00 +15°C° 0.2 mm 1 mps 582 mmHg 72%
    03:00 +14°C° 0.2 mm 1 mps 582 mmHg 73%
    04:00 +14°C° 0.2 mm 1 mps 582 mmHg 75%
    05:00 +14°C° 0.2 mm 1 mps 582 mmHg 76%
    06:00 +14°C° 0.1 mm 1 mps 582 mmHg 74%
    07:00 +15°C° 0.1 mm 1 mps 583 mmHg 73%
    08:00 +15°C° 0.1 mm 2 mps 583 mmHg 71%
    09:00 +17°C° 0.1 mm 2 mps 584 mmHg 64%
    10:00 +18°C° 0.1 mm 2 mps 584 mmHg 56%
    11:00 +20°C° 0.1 mm 2 mps 585 mmHg 49%
    12:00 +20°C° 0.1 mm 3 mps 584 mmHg 48%
    13:00 +20°C° 0.1 mm 4 mps 584 mmHg 48%
    14:00 +20°C° 0.1 mm 4 mps 583 mmHg 47%
    15:00 +19°C° 1 mm 4 mps 583 mmHg 54%
    16:00 +18°C° 1 mm 4 mps 582 mmHg 60%
    17:00 +15°C° 1 mm 4 mps 582 mmHg 67%
    18:00 +15°C° 0.3 mm 4 mps 582 mmHg 69%
    19:00 +15°C° 0.3 mm 4 mps 582 mmHg 71%
    20:00 +14°C° 0.3 mm 4 mps 583 mmHg 73%
    21:00 +14°C° 0.4 mm 3 mps 583 mmHg 75%
    22:00 +15°C° 0.4 mm 2 mps 583 mmHg 77%
    23:00 +14°C° 0.4 mm 2 mps 582 mmHg 79%

    Tomorrow, 19 January, Sunday

    Time Temperature Precipitation Wind Pressure Humidity
    00:00 +14°C° 0.3 mm 2 mps 582 mmHg 81%
    01:00 +14°C° 0.3 mm 2 mps 582 mmHg 82%
    02:00 +14°C° 0.3 mm 2 mps 582 mmHg 83%
    03:00 +13°C° 0.1 mm 2 mps 582 mmHg 84%
    04:00 +13°C° 0.1 mm 2 mps 582 mmHg 84%
    05:00 +13°C° 0.1 mm 2 mps 582 mmHg 85%
    06:00 +14°C° 0.1 mm 2 mps 583 mmHg 82%
    07:00 +14°C° 0.1 mm 2 mps 583 mmHg 79%
    08:00 +14°C° 0.1 mm 2 mps 584 mmHg 77%
    09:00 +14°C° 0.3 mm 3 mps 584 mmHg 73%
    10:00 +16°C° 0.3 mm 3 mps 584 mmHg 70%
    11:00 +15°C° 0.3 mm 4 mps 584 mmHg 66%
    12:00 +15°C° 0.3 mm 4 mps 584 mmHg 67%
    13:00 +15°C° 0.3 mm 4 mps 583 mmHg 68%
    14:00 +15°C° 0.3 mm 5 mps 583 mmHg 69%
    15:00 +14°C° 0.2 mm 4 mps 583 mmHg 71%
    16:00 +14°C° 0.2 mm 4 mps 582 mmHg 73%
    17:00 +13°C° 0.2 mm 4 mps 582 mmHg 75%
    18:00 +13°C° 1 mm 3 mps 583 mmHg 77%
    19:00 +12°C° 1 mm 3 mps 583 mmHg 79%
    20:00 +13°C° 1 mm 2 mps 584 mmHg 81%
    21:00 +12°C° 2.4 mm 2 mps 583 mmHg 83%
    22:00 +12°C° 2.4 mm 2 mps 583 mmHg 84%
    23:00 +12°C° 2.4 mm 2 mps 583 mmHg 86%

    Day after tomorrow, 20 January, Monday

    Time Temperature Precipitation Wind Pressure Humidity
    00:00 +12°C° 0.1 mm 2 mps 583 mmHg 86%
    01:00 +12°C° 0.1 mm 2 mps 583 mmHg 86%
    02:00 +12°C° 0.1 mm 2 mps 583 mmHg 85%
    03:00 +10°C° 0.1 mm 2 mps 583 mmHg 85%
    04:00 +10°C° 0.1 mm 2 mps 583 mmHg 84%
    05:00 +10°C° 0.1 mm 2 mps 583 mmHg 84%
    06:00 +12°C° 0 mm 2 mps 583 mmHg 82%
    07:00 +12°C° 0 mm 2 mps 584 mmHg 79%
    08:00 +12°C° 0 mm 2 mps 585 mmHg 77%
    09:00 +13°C° 0 mm 2 mps 585 mmHg 74%
    10:00 +13°C° 0 mm 3 mps 585 mmHg 70%
    11:00 +14°C° 0 mm 3 mps 585 mmHg 66%
    12:00 +14°C° 0 mm 4 mps 585 mmHg 63%
    13:00 +15°C° 0 mm 4 mps 584 mmHg 60%
    14:00 +15°C° 0 mm 4 mps 584 mmHg 57%
    15:00 +14°C° 0 mm 4 mps 584 mmHg 60%
    16:00 +14°C° 0 mm 5 mps 583 mmHg 63%
    17:00 +13°C° 0 mm 5 mps 583 mmHg 66%
    18:00 +12°C° 0 mm 4 mps 583 mmHg 69%
    19:00 +12°C° 0 mm 3 mps 583 mmHg 72%
    20:00 +11°C° 0 mm 3 mps 583 mmHg 75%
    21:00 +11°C° 0 mm 3 mps 583 mmHg 75%
    22:00 +12°C° 0 mm 2 mps 583 mmHg 76%
    23:00 +10°C° 0 mm 2 mps 583 mmHg 76%

    21 January, Tuesday

    Time Temperature Precipitation Wind Pressure Humidity
    00:00 +10°C° 0 mm 2 mps 583 mmHg 78%
    01:00 +10°C° 0 mm 2 mps 583 mmHg 80%
    02:00 +10°C° 0 mm 1 mps 582 mmHg 82%
    03:00 +10°C° 0 mm 1 mps 582 mmHg 84%
    04:00 +10°C° 0 mm 1 mps 581 mmHg 85%
    05:00 +9°C° 0 mm 1 mps 581 mmHg 87%
    06:00 +10°C° 0 mm 1 mps 582 mmHg 83%
    07:00 +11°C° 0 mm 1 mps 582 mmHg 78%
    08:00 +11°C° 0 mm 1 mps 582 mmHg 73%
    09:00 +13°C° 0 mm 1 mps 583 mmHg 65%
    10:00 +15°C° 0 mm 1 mps 583 mmHg 56%
    11:00 +18°C° 0 mm 1 mps 584 mmHg 48%
    12:00 +19°C° 0 mm 1 mps 584 mmHg 44%
    13:00 +20°C° 0 mm 1 mps 583 mmHg 41%
    14:00 +21°C° 0 mm 1 mps 583 mmHg 37%
    15:00 +20°C° 0 mm 1 mps 583 mmHg 40%
    16:00 +19°C° 0 mm 2 mps 583 mmHg 44%
    17:00 +18°C° 0 mm 2 mps 582 mmHg 47%
    18:00 +17°C° 0 mm 2 mps 582 mmHg 52%
    19:00 +18°C° 0 mm 1 mps 582 mmHg 57%
    20:00 +16°C° 0 mm 1 mps 583 mmHg 61%
    21:00 +16°C° 0 mm 1 mps 582 mmHg 63%
    22:00 +15°C° 0 mm 1 mps 582 mmHg 64%
    23:00 +15°C° 0 mm 1 mps 582 mmHg 65%

    22 January, Wednesday

    Time Temperature Precipitation Wind Pressure Humidity
    00:00 +14°C° 0 mm 1 mps 581 mmHg 67%
    01:00 +14°C° 0 mm 1 mps 581 mmHg 68%
    02:00 +13°C° 0 mm 1 mps 580 mmHg 69%
    03:00 +13°C° 0 mm 1 mps 580 mmHg 70%
    04:00 +13°C° 0 mm 1 mps 580 mmHg 70%
    05:00 +12°C° 0 mm 1 mps 580 mmHg 71%
    06:00 +13°C° 0 mm 1 mps 580 mmHg 67%
    07:00 +14°C° 0 mm 1 mps 581 mmHg 63%
    08:00 +15°C° 0 mm 1 mps 581 mmHg 59%
    09:00 +16°C° 0 mm 2 mps 582 mmHg 53%
    10:00 +18°C° 0 mm 2 mps 582 mmHg 48%
    11:00 +19°C° 0 mm 3 mps 582 mmHg 42%
    12:00 +20°C° 0 mm 3 mps 582 mmHg 39%
    13:00 +21°C° 0 mm 3 mps 581 mmHg 37%
    14:00 +21°C° 0 mm 3 mps 581 mmHg 34%
    15:00 +21°C° 0 mm 3 mps 581 mmHg 37%
    16:00 +20°C° 0 mm 4 mps 581 mmHg 40%
    17:00 +19°C° 0 mm 4 mps 580 mmHg 43%
    18:00 +18°C° 0 mm 3 mps 580 mmHg 47%
    19:00 +17°C° 0 mm 3 mps 580 mmHg 50%
    20:00 +16°C° 0 mm 2 mps 580 mmHg 54%
    21:00 +15°C° 0 mm 2 mps 580 mmHg 56%
    22:00 +14°C° 0 mm 2 mps 580 mmHg 57%
    23:00 +13°C° 0 mm 1 mps 579 mmHg 59%

    23 January, Thursday

    Time Temperature Precipitation Wind Pressure Humidity
    00:00 +13°C° 0 mm 1 mps 579 mmHg 60%
    01:00 +12°C° 0 mm 1 mps 578 mmHg 61%
    02:00 +12°C° 0 mm 1 mps 578 mmHg 61%
    03:00 +12°C° 0 mm 1 mps 578 mmHg 62%
    04:00 +11°C° 0 mm 1 mps 578 mmHg 63%
    05:00 +11°C° 0 mm 1 mps 578 mmHg 64%
    06:00 +11°C° 0 mm 1 mps 578 mmHg 59%
    07:00 +12°C° 0 mm 1 mps 579 mmHg 54%
    08:00 +13°C° 0 mm 1 mps 580 mmHg 49%
    09:00 +15°C° 0 mm 2 mps 580 mmHg 42%
    10:00 +16°C° 0 mm 2 mps 581 mmHg 36%
    11:00 +18°C° 0 mm 3 mps 582 mmHg 29%
    12:00 +19°C° 0 mm 4 mps 581 mmHg 28%
    13:00 +19°C° 0 mm 5 mps 581 mmHg 27%
    14:00 +20°C° 0 mm 7 mps 581 mmHg 26%
    15:00 +17°C° 0 mm 6 mps 580 mmHg 37%
    16:00 +15°C° 0 mm 6 mps 579 mmHg 48%
    17:00 +13°C° 0 mm 6 mps 578 mmHg 59%
    18:00 +13°C° 0 mm 4 mps 579 mmHg 58%
    19:00 +13°C° 0 mm 3 mps 579 mmHg 57%
    20:00 +14°C° 0 mm 1 mps 580 mmHg 56%
    21:00 +14°C° 0 mm 1 mps 579 mmHg 59%
    22:00 +13°C° 0 mm 1 mps 579 mmHg 61%
    23:00 +12°C° 0 mm 0 mps 579 mmHg 64%
    Show more